Year,Month,Day,Hour,Minute,Value (Times are PST for temperature in C)
2005,07,26,00,00,14.20
2005,07,26,00,01,14.20
2005,07,26,00,02,14.20
2005,07,26,00,03,14.20
2005,07,26,00,04,14.20
2005,07,26,00,05,14.20
2005,07,26,00,06,14.20
2005,07,26,00,07,14.20
2005,07,26,00,08,14.20
2005,07,26,00,09,14.20
2005,07,26,00,10,14.20
2005,07,26,00,11,14.10
2005,07,26,00,12,14.10
2005,07,26,00,13,14.10
2005,07,26,00,14,14.10
2005,07,26,00,15,14.20
2005,07,26,00,16,14.20
2005,07,26,00,17,14.20
2005,07,26,00,18,14.20
2005,07,26,00,19,14.20
2005,07,26,00,20,14.20
2005,07,26,00,21,14.20
2005,07,26,00,22,14.20
2005,07,26,00,23,14.20
2005,07,26,00,24,14.20
2005,07,26,00,25,14.20
2005,07,26,00,26,14.20
2005,07,26,00,27,14.20
2005,07,26,00,28,14.20
2005,07,26,00,29,14.20
2005,07,26,00,30,14.20
2005,07,26,00,31,14.20
2005,07,26,00,32,14.30
2005,07,26,00,33,14.30
2005,07,26,00,34,14.40
2005,07,26,00,35,14.40
2005,07,26,00,36,14.50
2005,07,26,00,37,14.50
2005,07,26,00,38,14.50
2005,07,26,00,39,14.40
2005,07,26,00,40,14.40
2005,07,26,00,41,14.40
2005,07,26,00,42,14.40
2005,07,26,00,43,14.30
2005,07,26,00,44,14.30
2005,07,26,00,45,14.30
2005,07,26,00,46,14.30
2005,07,26,00,47,14.30
2005,07,26,00,48,14.20
2005,07,26,00,49,14.20
2005,07,26,00,50,14.20
2005,07,26,00,51,14.20
2005,07,26,00,52,14.20
2005,07,26,00,53,14.20
2005,07,26,00,54,14.20
2005,07,26,00,55,14.20
2005,07,26,00,56,14.20
2005,07,26,00,57,14.10
2005,07,26,00,58,14.10
2005,07,26,00,59,14.10
2005,07,26,01,00,14.00
2005,07,26,01,01,14.00
2005,07,26,01,02,14.00
2005,07,26,01,03,14.00
2005,07,26,01,04,13.90
2005,07,26,01,05,13.90
2005,07,26,01,06,13.90
2005,07,26,01,07,13.90
2005,07,26,01,08,13.90
2005,07,26,01,09,13.80
2005,07,26,01,10,13.80
2005,07,26,01,11,13.80
2005,07,26,01,12,13.70
2005,07,26,01,13,13.70
2005,07,26,01,14,13.70
2005,07,26,01,15,13.70
2005,07,26,01,16,13.70
2005,07,26,01,17,13.60
2005,07,26,01,18,13.60
2005,07,26,01,19,13.60
2005,07,26,01,20,13.50
2005,07,26,01,21,13.50
2005,07,26,01,22,13.50
2005,07,26,01,23,13.40
2005,07,26,01,24,13.40
2005,07,26,01,25,13.40
2005,07,26,01,26,13.40
2005,07,26,01,27,13.30
2005,07,26,01,28,13.30
2005,07,26,01,29,13.30
2005,07,26,01,30,13.30
2005,07,26,01,31,13.30
2005,07,26,01,32,13.30
2005,07,26,01,33,13.30
2005,07,26,01,34,13.30
2005,07,26,01,35,13.20
2005,07,26,01,36,13.20
2005,07,26,01,37,13.20
2005,07,26,01,38,13.20
2005,07,26,01,39,13.10
2005,07,26,01,40,13.10
2005,07,26,01,41,13.10
2005,07,26,01,42,13.10
2005,07,26,01,43,13.10
2005,07,26,01,44,13.10
2005,07,26,01,45,13.00
2005,07,26,01,46,13.00
2005,07,26,01,47,13.00
2005,07,26,01,48,13.00
2005,07,26,01,49,13.00
2005,07,26,01,50,13.00
2005,07,26,01,51,13.00
2005,07,26,01,52,13.00
2005,07,26,01,53,13.00
2005,07,26,01,54,13.00
2005,07,26,01,55,13.00
2005,07,26,01,56,13.00
2005,07,26,01,57,12.90
2005,07,26,01,58,12.90
2005,07,26,01,59,12.90
2005,07,26,02,00,12.90
2005,07,26,02,01,12.80
2005,07,26,02,02,12.80
2005,07,26,02,03,12.80
2005,07,26,02,04,12.80
2005,07,26,02,05,12.70
2005,07,26,02,06,12.70
2005,07,26,02,07,12.70
2005,07,26,02,08,12.60
2005,07,26,02,09,12.60
2005,07,26,02,10,12.50
2005,07,26,02,11,12.50
2005,07,26,02,12,12.50
2005,07,26,02,13,12.50
2005,07,26,02,14,12.40
2005,07,26,02,15,12.40
2005,07,26,02,16,12.40
2005,07,26,02,17,12.40
2005,07,26,02,18,12.30
2005,07,26,02,19,12.30
2005,07,26,02,20,12.30
2005,07,26,02,21,12.30
2005,07,26,02,22,12.30
2005,07,26,02,23,12.30
2005,07,26,02,24,12.30
2005,07,26,02,25,12.30
2005,07,26,02,26,12.30
2005,07,26,02,27,12.30
2005,07,26,02,28,12.30
2005,07,26,02,29,12.30
2005,07,26,02,30,12.30
2005,07,26,02,31,12.30
2005,07,26,02,32,12.30
2005,07,26,02,33,12.30
2005,07,26,02,34,12.30
2005,07,26,02,35,12.30
2005,07,26,02,36,12.30
2005,07,26,02,37,12.30
2005,07,26,02,38,12.30
2005,07,26,02,39,12.40
2005,07,26,02,40,12.40
2005,07,26,02,41,12.40
2005,07,26,02,42,12.40
2005,07,26,02,43,12.40
2005,07,26,02,44,12.50
2005,07,26,02,45,12.50
2005,07,26,02,46,12.50
2005,07,26,02,47,12.50
2005,07,26,02,48,12.50
2005,07,26,02,49,12.50
2005,07,26,02,50,12.50
2005,07,26,02,51,12.50
2005,07,26,02,52,12.50
2005,07,26,02,53,12.50
2005,07,26,02,54,12.40
2005,07,26,02,55,12.40
2005,07,26,02,56,12.40
2005,07,26,02,57,12.40
2005,07,26,02,58,12.40
2005,07,26,02,59,12.40
2005,07,26,03,00,12.40
2005,07,26,03,01,12.40
2005,07,26,03,02,12.30
2005,07,26,03,03,12.30
2005,07,26,03,04,12.30
2005,07,26,03,05,12.30
2005,07,26,03,06,12.30
2005,07,26,03,07,12.30
2005,07,26,03,08,12.30
2005,07,26,03,09,12.30
2005,07,26,03,10,12.30
2005,07,26,03,11,12.30
2005,07,26,03,12,12.30
2005,07,26,03,13,12.30
2005,07,26,03,14,12.30
2005,07,26,03,15,12.30
2005,07,26,03,16,12.30
2005,07,26,03,17,12.30
2005,07,26,03,18,12.30
2005,07,26,03,19,12.30
2005,07,26,03,20,12.30
2005,07,26,03,21,12.30
2005,07,26,03,22,12.20
2005,07,26,03,23,12.20
2005,07,26,03,24,12.30
2005,07,26,03,25,12.30
2005,07,26,03,26,12.30
2005,07,26,03,27,12.30
2005,07,26,03,28,12.30
2005,07,26,03,29,12.30
2005,07,26,03,30,12.20
2005,07,26,03,31,12.20
2005,07,26,03,32,12.20
2005,07,26,03,33,12.20
2005,07,26,03,34,12.20
2005,07,26,03,35,12.20
2005,07,26,03,36,12.20
2005,07,26,03,37,12.10
2005,07,26,03,38,12.10
2005,07,26,03,39,12.10
2005,07,26,03,40,12.10
2005,07,26,03,41,12.00
2005,07,26,03,42,12.00
2005,07,26,03,43,12.00
2005,07,26,03,44,12.00
2005,07,26,03,45,12.00
2005,07,26,03,46,12.00
2005,07,26,03,47,12.00
2005,07,26,03,48,12.00
2005,07,26,03,49,12.00
2005,07,26,03,50,12.10
2005,07,26,03,51,12.10
2005,07,26,03,52,12.10
2005,07,26,03,53,12.10
2005,07,26,03,54,12.10
2005,07,26,03,55,12.00
2005,07,26,03,56,12.00
2005,07,26,03,57,12.00
2005,07,26,03,58,12.00
2005,07,26,03,59,11.90
2005,07,26,04,00,11.90
2005,07,26,04,01,11.90
2005,07,26,04,02,11.80
2005,07,26,04,03,11.80
2005,07,26,04,04,11.80
2005,07,26,04,05,11.80
2005,07,26,04,06,11.80
2005,07,26,04,07,11.80
2005,07,26,04,08,11.80
2005,07,26,04,09,11.80
2005,07,26,04,10,11.80
2005,07,26,04,11,11.80
2005,07,26,04,12,11.80
2005,07,26,04,13,11.80
2005,07,26,04,14,11.80
2005,07,26,04,15,11.80
2005,07,26,04,16,11.80
2005,07,26,04,17,11.80
2005,07,26,04,18,11.80
2005,07,26,04,19,11.70
2005,07,26,04,20,11.70
2005,07,26,04,21,11.70
2005,07,26,04,22,11.60
2005,07,26,04,23,11.60
2005,07,26,04,24,11.60
2005,07,26,04,25,11.60
2005,07,26,04,26,11.60
2005,07,26,04,27,11.60
2005,07,26,04,28,11.60
2005,07,26,04,29,11.60
2005,07,26,04,30,11.60
2005,07,26,04,31,11.60
2005,07,26,04,32,11.60
2005,07,26,04,33,11.60
2005,07,26,04,34,11.60
2005,07,26,04,35,11.60
2005,07,26,04,36,11.40
2005,07,26,04,37,11.40
2005,07,26,04,38,11.40
2005,07,26,04,39,11.40
2005,07,26,04,40,11.40
2005,07,26,04,41,11.40
2005,07,26,04,42,11.40
2005,07,26,04,43,11.40
2005,07,26,04,44,11.40
2005,07,26,04,45,11.40
2005,07,26,04,46,11.40
2005,07,26,04,47,11.40
2005,07,26,04,48,11.40
2005,07,26,04,49,11.40
2005,07,26,04,50,11.40
2005,07,26,04,51,11.40
2005,07,26,04,52,11.40
2005,07,26,04,53,11.40
2005,07,26,04,54,11.40
2005,07,26,04,55,11.40
2005,07,26,04,56,11.40
2005,07,26,04,57,11.40
2005,07,26,04,58,11.40
2005,07,26,04,59,11.40
2005,07,26,05,00,11.40
2005,07,26,05,01,11.40
2005,07,26,05,02,11.40
2005,07,26,05,03,11.40
2005,07,26,05,04,11.40
2005,07,26,05,05,11.40
2005,07,26,05,06,11.40
2005,07,26,05,07,11.40
2005,07,26,05,08,11.40
2005,07,26,05,09,11.30
2005,07,26,05,10,11.30
2005,07,26,05,11,11.30
2005,07,26,05,12,11.30
2005,07,26,05,13,11.30
2005,07,26,05,14,11.20
2005,07,26,05,15,11.20
2005,07,26,05,16,11.20
2005,07,26,05,17,11.20
2005,07,26,05,18,11.20
2005,07,26,05,19,11.10
2005,07,26,05,20,11.10
2005,07,26,05,21,11.10
2005,07,26,05,22,11.10
2005,07,26,05,23,11.10
2005,07,26,05,24,11.00
2005,07,26,05,25,10.90
2005,07,26,05,26,10.90
2005,07,26,05,27,10.90
2005,07,26,05,28,10.90
2005,07,26,05,29,10.90
2005,07,26,05,30,10.90
2005,07,26,05,31,10.90
2005,07,26,05,32,10.90
2005,07,26,05,33,10.80
2005,07,26,05,34,10.80
2005,07,26,05,35,10.80
2005,07,26,05,36,10.80
2005,07,26,05,37,10.80
2005,07,26,05,38,10.80
2005,07,26,05,39,10.90
2005,07,26,05,40,10.90
2005,07,26,05,41,10.90
2005,07,26,05,42,10.90
2005,07,26,05,43,10.90
2005,07,26,05,44,10.90
2005,07,26,05,45,10.90
2005,07,26,05,46,10.90
2005,07,26,05,47,10.90
2005,07,26,05,48,10.90
2005,07,26,05,49,10.90
2005,07,26,05,50,10.90
2005,07,26,05,51,10.90
2005,07,26,05,52,10.90
2005,07,26,05,53,10.90
2005,07,26,05,54,10.90
2005,07,26,05,55,10.90
2005,07,26,05,56,10.80
2005,07,26,05,57,10.80
2005,07,26,05,58,10.80
2005,07,26,05,59,10.80
2005,07,26,06,00,10.80
2005,07,26,06,01,10.80
2005,07,26,06,02,10.70
2005,07,26,06,03,10.70
2005,07,26,06,04,10.80
2005,07,26,06,05,10.80
2005,07,26,06,06,10.80
2005,07,26,06,07,10.80
2005,07,26,06,08,10.80
2005,07,26,06,09,10.80
2005,07,26,06,10,10.80
2005,07,26,06,11,10.80
2005,07,26,06,12,10.80
2005,07,26,06,13,10.80
2005,07,26,06,14,10.80
2005,07,26,06,15,10.80
2005,07,26,06,16,10.80
2005,07,26,06,17,10.80
2005,07,26,06,18,10.90
2005,07,26,06,19,10.90
2005,07,26,06,20,10.90
2005,07,26,06,21,11.00
2005,07,26,06,22,11.10
2005,07,26,06,23,11.10
2005,07,26,06,24,11.20
2005,07,26,06,25,11.20
2005,07,26,06,26,11.30
2005,07,26,06,27,11.40
2005,07,26,06,28,11.50
2005,07,26,06,29,11.60
2005,07,26,06,30,11.70
2005,07,26,06,31,11.80
2005,07,26,06,32,11.80
2005,07,26,06,33,11.90
2005,07,26,06,34,12.00
2005,07,26,06,35,12.00
2005,07,26,06,36,12.10
2005,07,26,06,37,12.20
2005,07,26,06,38,12.20
2005,07,26,06,39,12.30
2005,07,26,06,40,12.30
2005,07,26,06,41,12.40
2005,07,26,06,42,12.50
2005,07,26,06,43,12.60
2005,07,26,06,44,12.80
2005,07,26,06,45,12.80
2005,07,26,06,46,12.90
2005,07,26,06,47,13.00
2005,07,26,06,48,13.00
2005,07,26,06,49,13.10
2005,07,26,06,50,13.10
2005,07,26,06,51,13.20
2005,07,26,06,52,13.20
2005,07,26,06,53,13.30
2005,07,26,06,54,13.30
2005,07,26,06,55,13.20
2005,07,26,06,56,13.20
2005,07,26,06,57,13.20
2005,07,26,06,58,13.20
2005,07,26,06,59,13.20
2005,07,26,07,00,13.30
2005,07,26,07,01,13.30
2005,07,26,07,02,13.30
2005,07,26,07,03,13.40
2005,07,26,07,04,13.40
2005,07,26,07,05,13.50
2005,07,26,07,06,13.50
2005,07,26,07,07,13.60
2005,07,26,07,08,13.60
2005,07,26,07,09,13.70
2005,07,26,07,10,13.80
2005,07,26,07,11,13.90
2005,07,26,07,12,14.00
2005,07,26,07,13,14.10
2005,07,26,07,14,14.20
2005,07,26,07,15,14.30
2005,07,26,07,16,14.50
2005,07,26,07,17,14.60
2005,07,26,07,18,14.60
2005,07,26,07,19,14.70
2005,07,26,07,20,14.80
2005,07,26,07,21,14.80
2005,07,26,07,22,14.90
2005,07,26,07,23,14.90
2005,07,26,07,24,15.00
2005,07,26,07,25,15.10
2005,07,26,07,26,15.30
2005,07,26,07,27,15.40
2005,07,26,07,28,15.50
2005,07,26,07,29,15.60
2005,07,26,07,30,15.70
2005,07,26,07,31,15.80
2005,07,26,07,32,16.00
2005,07,26,07,33,16.20
2005,07,26,07,34,16.30
2005,07,26,07,35,16.40
2005,07,26,07,36,16.50
2005,07,26,07,37,16.60
2005,07,26,07,38,16.70
2005,07,26,07,39,16.80
2005,07,26,07,40,17.00
2005,07,26,07,41,17.00
2005,07,26,07,42,17.00
2005,07,26,07,43,17.00
2005,07,26,07,44,17.00
2005,07,26,07,45,17.10
2005,07,26,07,46,17.10
2005,07,26,07,47,17.10
2005,07,26,07,48,17.20
2005,07,26,07,49,17.20
2005,07,26,07,50,17.20
2005,07,26,07,51,17.10
2005,07,26,07,52,17.10
2005,07,26,07,53,17.00
2005,07,26,07,54,17.00
2005,07,26,07,55,16.90
2005,07,26,07,56,16.90
2005,07,26,07,57,17.00
2005,07,26,07,58,17.00
2005,07,26,07,59,17.10
2005,07,26,08,00,17.10
2005,07,26,08,01,17.30
2005,07,26,08,02,17.40
2005,07,26,08,03,17.50
2005,07,26,08,04,17.60
2005,07,26,08,05,17.60
2005,07,26,08,06,17.70
2005,07,26,08,07,17.80
2005,07,26,08,08,17.90
2005,07,26,08,09,17.90
2005,07,26,08,10,18.10
2005,07,26,08,11,18.20
2005,07,26,08,12,18.20
2005,07,26,08,13,18.20
2005,07,26,08,14,18.20
2005,07,26,08,15,18.20
2005,07,26,08,16,18.20
2005,07,26,08,17,18.20
2005,07,26,08,18,18.20
2005,07,26,08,19,18.20
2005,07,26,08,20,18.20
2005,07,26,08,21,18.20
2005,07,26,08,22,18.30
2005,07,26,08,23,18.30
2005,07,26,08,24,18.30
2005,07,26,08,25,18.40
2005,07,26,08,26,18.40
2005,07,26,08,27,18.40
2005,07,26,08,28,18.50
2005,07,26,08,29,18.50
2005,07,26,08,30,18.60
2005,07,26,08,31,18.60
2005,07,26,08,32,18.80
2005,07,26,08,33,18.90
2005,07,26,08,34,19.00
2005,07,26,08,35,19.10
2005,07,26,08,36,19.30
2005,07,26,08,37,19.40
2005,07,26,08,38,19.50
2005,07,26,08,39,19.60
2005,07,26,08,40,19.70
2005,07,26,08,41,19.80
2005,07,26,08,42,19.80
2005,07,26,08,43,19.80
2005,07,26,08,44,19.80
2005,07,26,08,45,19.90
2005,07,26,08,46,19.90
2005,07,26,08,47,19.90
2005,07,26,08,48,19.90
2005,07,26,08,49,19.90
2005,07,26,08,50,19.90
2005,07,26,08,51,19.90
2005,07,26,08,52,19.90
2005,07,26,08,53,19.90
2005,07,26,08,54,19.90
2005,07,26,08,55,19.80
2005,07,26,08,56,19.90
2005,07,26,08,57,19.90
2005,07,26,08,58,20.00
2005,07,26,08,59,20.10
2005,07,26,09,00,20.10
2005,07,26,09,01,20.10
2005,07,26,09,02,20.10
2005,07,26,09,03,20.10
2005,07,26,09,04,20.10
2005,07,26,09,05,20.20
2005,07,26,09,06,20.30
2005,07,26,09,07,20.30
2005,07,26,09,08,20.50
2005,07,26,09,09,20.60
2005,07,26,09,10,20.70
2005,07,26,09,11,20.80
2005,07,26,09,12,20.80
2005,07,26,09,13,20.80
2005,07,26,09,14,20.90
2005,07,26,09,15,21.00
2005,07,26,09,16,21.00
2005,07,26,09,17,21.00
2005,07,26,09,18,21.00
2005,07,26,09,19,21.10
2005,07,26,09,20,21.10
2005,07,26,09,21,21.10
2005,07,26,09,22,21.10
2005,07,26,09,23,21.10
2005,07,26,09,24,21.10
2005,07,26,09,25,21.10
2005,07,26,09,26,21.10
2005,07,26,09,27,21.10
2005,07,26,09,28,21.20
2005,07,26,09,29,21.30
2005,07,26,09,30,21.30
2005,07,26,09,31,21.30
2005,07,26,09,32,21.30
2005,07,26,09,33,21.30
2005,07,26,09,34,21.30
2005,07,26,09,35,21.40
2005,07,26,09,36,21.50
2005,07,26,09,37,21.60
2005,07,26,09,38,21.60
2005,07,26,09,39,21.60
2005,07,26,09,40,21.60
2005,07,26,09,41,21.60
2005,07,26,09,42,21.70
2005,07,26,09,43,21.80
2005,07,26,09,44,21.80
2005,07,26,09,45,21.80
2005,07,26,09,46,21.60
2005,07,26,09,47,21.50
2005,07,26,09,48,21.40
2005,07,26,09,49,21.20
2005,07,26,09,50,21.10
2005,07,26,09,51,21.00
2005,07,26,09,52,21.00
2005,07,26,09,53,20.90
2005,07,26,09,54,20.80
2005,07,26,09,55,20.80
2005,07,26,09,56,20.80
2005,07,26,09,57,20.90
2005,07,26,09,58,20.90
2005,07,26,09,59,20.90
2005,07,26,10,00,21.00
2005,07,26,10,01,21.00
2005,07,26,10,02,21.00
2005,07,26,10,03,21.10
2005,07,26,10,04,21.20
2005,07,26,10,05,21.30
2005,07,26,10,06,21.30
2005,07,26,10,07,21.30
2005,07,26,10,08,21.30
2005,07,26,10,09,21.30
2005,07,26,10,10,21.30
2005,07,26,10,11,21.20
2005,07,26,10,12,21.30
2005,07,26,10,13,21.30
2005,07,26,10,14,21.20
2005,07,26,10,15,21.20
2005,07,26,10,16,21.20
2005,07,26,10,17,21.30
2005,07,26,10,18,21.50
2005,07,26,10,19,21.70
2005,07,26,10,20,21.80
2005,07,26,10,21,21.80
2005,07,26,10,22,21.80
2005,07,26,10,23,21.80
2005,07,26,10,24,21.80
2005,07,26,10,25,21.80
2005,07,26,10,26,21.70
2005,07,26,10,27,21.70
2005,07,26,10,28,21.70
2005,07,26,10,29,21.60
2005,07,26,10,30,21.60
2005,07,26,10,31,21.60
2005,07,26,10,32,21.60
2005,07,26,10,33,21.50
2005,07,26,10,34,21.40
2005,07,26,10,35,21.30
2005,07,26,10,36,21.40
2005,07,26,10,37,21.50
2005,07,26,10,38,21.60
2005,07,26,10,39,21.80
2005,07,26,10,40,21.90
2005,07,26,10,41,21.90
2005,07,26,10,42,22.00
2005,07,26,10,43,22.10
2005,07,26,10,44,22.20
2005,07,26,10,45,22.40
2005,07,26,10,46,22.40
2005,07,26,10,47,22.40
2005,07,26,10,48,22.40
2005,07,26,10,49,22.40
2005,07,26,10,50,22.50
2005,07,26,10,51,22.50
2005,07,26,10,52,22.50
2005,07,26,10,53,22.40
2005,07,26,10,54,22.40
2005,07,26,10,55,22.30
2005,07,26,10,56,22.20
2005,07,26,10,57,22.30
2005,07,26,10,58,22.30
2005,07,26,10,59,22.40
2005,07,26,11,00,22.50
2005,07,26,11,01,22.60
2005,07,26,11,02,22.60
2005,07,26,11,03,22.70
2005,07,26,11,04,22.70
2005,07,26,11,05,22.80
2005,07,26,11,06,22.80
2005,07,26,11,07,22.80
2005,07,26,11,08,22.80
2005,07,26,11,09,22.80
2005,07,26,11,10,22.80
2005,07,26,11,11,22.80
2005,07,26,11,12,22.70
2005,07,26,11,13,22.60
2005,07,26,11,14,22.50
2005,07,26,11,15,22.40
2005,07,26,11,16,22.40
2005,07,26,11,17,22.50
2005,07,26,11,18,22.70
2005,07,26,11,19,22.80
2005,07,26,11,20,22.80
2005,07,26,11,21,22.80
2005,07,26,11,22,22.80
2005,07,26,11,23,22.80
2005,07,26,11,24,22.80
2005,07,26,11,25,22.80
2005,07,26,11,26,22.80
2005,07,26,11,27,22.70
2005,07,26,11,28,22.70
2005,07,26,11,29,22.70
2005,07,26,11,30,22.60
2005,07,26,11,31,22.60
2005,07,26,11,32,22.50
2005,07,26,11,33,22.50
2005,07,26,11,34,22.60
2005,07,26,11,35,22.70
2005,07,26,11,36,22.80
2005,07,26,11,37,22.80
2005,07,26,11,38,22.90
2005,07,26,11,39,23.00
2005,07,26,11,40,22.90
2005,07,26,11,41,22.70
2005,07,26,11,42,22.60
2005,07,26,11,43,22.60
2005,07,26,11,44,22.60
2005,07,26,11,45,22.70
2005,07,26,11,46,22.90
2005,07,26,11,47,22.90
2005,07,26,11,48,22.90
2005,07,26,11,49,22.90
2005,07,26,11,50,22.90
2005,07,26,11,51,22.90
2005,07,26,11,52,22.90
2005,07,26,11,53,22.90
2005,07,26,11,54,23.00
2005,07,26,11,55,23.00
2005,07,26,11,56,22.90
2005,07,26,11,57,22.90
2005,07,26,11,58,23.00
2005,07,26,11,59,23.20
2005,07,26,12,00,23.30
2005,07,26,12,01,23.40
2005,07,26,12,02,23.50
2005,07,26,12,03,23.60
2005,07,26,12,04,23.70
2005,07,26,12,05,23.70
2005,07,26,12,06,23.60
2005,07,26,12,07,23.40
2005,07,26,12,08,23.30
2005,07,26,12,09,23.30
2005,07,26,12,10,23.30
2005,07,26,12,11,23.30
2005,07,26,12,12,23.40
2005,07,26,12,13,23.60
2005,07,26,12,14,23.70
2005,07,26,12,15,23.70
2005,07,26,12,16,23.70
2005,07,26,12,17,23.60
2005,07,26,12,18,23.50
2005,07,26,12,19,23.40
2005,07,26,12,20,23.40
2005,07,26,12,21,23.40
2005,07,26,12,22,23.40
2005,07,26,12,23,23.30
2005,07,26,12,24,23.30
2005,07,26,12,25,23.30
2005,07,26,12,26,23.30
2005,07,26,12,27,23.30
2005,07,26,12,28,23.40
2005,07,26,12,29,23.60
2005,07,26,12,30,23.60
2005,07,26,12,31,23.70
2005,07,26,12,32,23.90
2005,07,26,12,33,23.90
2005,07,26,12,34,23.90
2005,07,26,12,35,24.00
2005,07,26,12,36,24.10
2005,07,26,12,37,24.20
2005,07,26,12,38,24.20
2005,07,26,12,39,24.30
2005,07,26,12,40,24.30
2005,07,26,12,41,24.30
2005,07,26,12,42,24.30
2005,07,26,12,43,24.20
2005,07,26,12,44,24.20
2005,07,26,12,45,24.20
2005,07,26,12,46,24.20
2005,07,26,12,47,24.10
2005,07,26,12,48,24.10
2005,07,26,12,49,24.10
2005,07,26,12,50,24.10
2005,07,26,12,51,24.10
2005,07,26,12,52,24.10
2005,07,26,12,53,24.10
2005,07,26,12,54,24.00
2005,07,26,12,55,24.10
2005,07,26,12,56,24.10
2005,07,26,12,57,24.10
2005,07,26,12,58,24.10
2005,07,26,12,59,23.80
2005,07,26,13,00,23.70
2005,07,26,13,01,23.70
2005,07,26,13,02,23.70
2005,07,26,13,03,23.60
2005,07,26,13,04,23.50
2005,07,26,13,05,23.30
2005,07,26,13,06,23.40
2005,07,26,13,07,23.50
2005,07,26,13,08,23.60
2005,07,26,13,09,23.70
2005,07,26,13,10,23.70
2005,07,26,13,11,23.80
2005,07,26,13,12,23.90
2005,07,26,13,13,23.90
2005,07,26,13,14,23.80
2005,07,26,13,15,23.80
2005,07,26,13,16,23.90
2005,07,26,13,17,24.00
2005,07,26,13,18,24.10
2005,07,26,13,19,24.10
2005,07,26,13,20,24.20
2005,07,26,13,21,24.10
2005,07,26,13,22,24.10
2005,07,26,13,23,23.90
2005,07,26,13,24,23.80
2005,07,26,13,25,23.70
2005,07,26,13,26,23.70
2005,07,26,13,27,23.70
2005,07,26,13,28,23.70
2005,07,26,13,29,23.90
2005,07,26,13,30,24.10
2005,07,26,13,31,24.30
2005,07,26,13,32,24.50
2005,07,26,13,33,24.60
2005,07,26,13,34,24.70
2005,07,26,13,35,24.70
2005,07,26,13,36,24.80
2005,07,26,13,37,24.80
2005,07,26,13,38,24.90
2005,07,26,13,39,25.00
2005,07,26,13,40,25.10
2005,07,26,13,41,25.10
2005,07,26,13,42,25.10
2005,07,26,13,43,25.10
2005,07,26,13,44,25.00
2005,07,26,13,45,24.90
2005,07,26,13,46,24.90
2005,07,26,13,47,24.80
2005,07,26,13,48,24.80
2005,07,26,13,49,24.80
2005,07,26,13,50,24.80
2005,07,26,13,51,24.90
2005,07,26,13,52,25.00
2005,07,26,13,53,25.10
2005,07,26,13,54,25.10
2005,07,26,13,55,25.00
2005,07,26,13,56,24.90
2005,07,26,13,57,24.90
2005,07,26,13,58,24.90
2005,07,26,13,59,25.00
2005,07,26,14,00,25.10
2005,07,26,14,01,25.20
2005,07,26,14,02,25.40
2005,07,26,14,03,25.50
2005,07,26,14,04,25.60
2005,07,26,14,05,25.60
2005,07,26,14,06,25.50
2005,07,26,14,07,25.50
2005,07,26,14,08,25.50
2005,07,26,14,09,25.40
2005,07,26,14,10,25.30
2005,07,26,14,11,25.20
2005,07,26,14,12,25.20
2005,07,26,14,13,25.20
2005,07,26,14,14,25.20
2005,07,26,14,15,25.20
2005,07,26,14,16,25.30
2005,07,26,14,17,25.30
2005,07,26,14,18,25.40
2005,07,26,14,19,25.30
2005,07,26,14,20,25.30
2005,07,26,14,21,25.40
2005,07,26,14,22,25.50
2005,07,26,14,23,25.60
2005,07,26,14,24,25.70
2005,07,26,14,25,25.80
2005,07,26,14,26,25.90
2005,07,26,14,27,26.00
2005,07,26,14,28,25.90
2005,07,26,14,29,25.80
2005,07,26,14,30,25.70
2005,07,26,14,31,25.60
2005,07,26,14,32,25.60
2005,07,26,14,33,25.50
2005,07,26,14,34,25.50
2005,07,26,14,35,25.60
2005,07,26,14,36,25.70
2005,07,26,14,37,25.80
2005,07,26,14,38,25.90
2005,07,26,14,39,26.00
2005,07,26,14,40,26.10
2005,07,26,14,42,26.20
2005,07,26,14,43,26.20
2005,07,26,14,44,26.30
2005,07,26,14,45,26.10
2005,07,26,14,46,25.90
2005,07,26,14,47,25.80
2005,07,26,14,48,25.70
2005,07,26,14,49,25.70
2005,07,26,14,50,25.60
2005,07,26,14,51,25.60
2005,07,26,14,52,25.60
2005,07,26,14,53,25.60
2005,07,26,14,54,25.70
2005,07,26,14,55,25.90
2005,07,26,14,56,25.90
2005,07,26,14,57,25.90
2005,07,26,14,58,26.10
2005,07,26,14,59,26.20
2005,07,26,15,00,26.10
2005,07,26,15,01,26.10
2005,07,26,15,02,26.20
2005,07,26,15,03,26.30
2005,07,26,15,04,26.30
2005,07,26,15,05,26.30
2005,07,26,15,06,26.20
2005,07,26,15,07,26.20
2005,07,26,15,08,26.20
2005,07,26,15,09,26.20
2005,07,26,15,10,26.20
2005,07,26,15,11,26.10
2005,07,26,15,12,26.20
2005,07,26,15,13,26.20
2005,07,26,15,14,26.20
2005,07,26,15,15,26.20
2005,07,26,15,16,26.20
2005,07,26,15,17,26.30
2005,07,26,15,18,26.40
2005,07,26,15,19,26.40
2005,07,26,15,20,26.50
2005,07,26,15,21,26.60
2005,07,26,15,22,26.60
2005,07,26,15,23,26.60
2005,07,26,15,24,26.70
2005,07,26,15,25,26.80
2005,07,26,15,26,26.80
2005,07,26,15,27,26.80
2005,07,26,15,28,26.80
2005,07,26,15,29,26.90
2005,07,26,15,30,27.10
2005,07,26,15,31,27.10
2005,07,26,15,32,27.10
2005,07,26,15,33,27.10
2005,07,26,15,34,27.10
2005,07,26,15,35,27.10
2005,07,26,15,36,27.10
2005,07,26,15,37,27.20
2005,07,26,15,38,27.30
2005,07,26,15,39,27.30
2005,07,26,15,40,27.30
2005,07,26,15,41,27.30
2005,07,26,15,42,27.30
2005,07,26,15,43,27.20
2005,07,26,15,44,27.10
2005,07,26,15,45,27.00
2005,07,26,15,46,26.80
2005,07,26,15,47,26.90
2005,07,26,15,48,26.90
2005,07,26,15,49,26.80
2005,07,26,15,50,26.80
2005,07,26,15,51,26.90
2005,07,26,15,52,26.90
2005,07,26,15,53,26.80
2005,07,26,15,54,26.80
2005,07,26,15,55,26.80
2005,07,26,15,56,26.70
2005,07,26,15,57,26.80
2005,07,26,15,58,26.90
2005,07,26,15,59,26.90
2005,07,26,16,00,26.90
2005,07,26,16,01,26.90
2005,07,26,16,02,26.80
2005,07,26,16,03,26.80
2005,07,26,16,04,26.80
2005,07,26,16,05,26.80
2005,07,26,16,06,26.60
2005,07,26,16,07,26.40
2005,07,26,16,08,26.60
2005,07,26,16,09,26.60
2005,07,26,16,10,26.60
2005,07,26,16,11,26.40
2005,07,26,16,12,26.30
2005,07,26,16,13,26.20
2005,07,26,16,14,26.20
2005,07,26,16,15,26.20
2005,07,26,16,16,26.20
2005,07,26,16,17,26.20
2005,07,26,16,18,26.20
2005,07,26,16,19,26.20
2005,07,26,16,20,26.20
2005,07,26,16,21,26.10
2005,07,26,16,22,26.10
2005,07,26,16,23,26.00
2005,07,26,16,24,25.90
2005,07,26,16,25,25.90
2005,07,26,16,26,25.80
2005,07,26,16,27,25.80
2005,07,26,16,28,25.70
2005,07,26,16,29,25.80
2005,07,26,16,30,25.80
2005,07,26,16,31,25.90
2005,07,26,16,32,25.90
2005,07,26,16,33,25.90
2005,07,26,16,34,25.80
2005,07,26,16,35,25.80
2005,07,26,16,36,25.80
2005,07,26,16,37,25.70
2005,07,26,16,38,25.80
2005,07,26,16,39,25.80
2005,07,26,16,40,25.80
2005,07,26,16,41,25.70
2005,07,26,16,42,25.70
2005,07,26,16,43,25.60
2005,07,26,16,44,25.70
2005,07,26,16,45,25.80
2005,07,26,16,46,25.80
2005,07,26,16,47,25.80
2005,07,26,16,48,25.70
2005,07,26,16,49,25.70
2005,07,26,16,50,25.70
2005,07,26,16,51,25.70
2005,07,26,16,52,25.60
2005,07,26,16,53,25.50
2005,07,26,16,54,25.50
2005,07,26,16,55,25.40
2005,07,26,16,56,25.40
2005,07,26,16,57,25.40
2005,07,26,16,58,25.40
2005,07,26,16,59,25.40
2005,07,26,17,00,25.40
2005,07,26,17,01,25.40
2005,07,26,17,02,25.30
2005,07,26,17,03,25.40
2005,07,26,17,04,25.40
2005,07,26,17,05,25.50
2005,07,26,17,06,25.50
2005,07,26,17,07,25.50
2005,07,26,17,08,25.40
2005,07,26,17,09,25.30
2005,07,26,17,10,25.20
2005,07,26,17,11,25.20
2005,07,26,17,12,25.20
2005,07,26,17,13,25.20
2005,07,26,17,14,25.30
2005,07,26,17,15,25.30
2005,07,26,17,16,25.30
2005,07,26,17,17,25.30
2005,07,26,17,18,25.20
2005,07,26,17,19,25.30
2005,07,26,17,20,25.20